Location: Jackass Flat
(38.5305°N, 119.3727°W)
Time: 12:40:37
(UTC+00:00)

Daily predictions for brighter satellites

Satellite Brightness Start Highest point End
(mag) Time Altitude Azimuth Time Altitude Azimuth Time Altitude Azimuth
Cosmos 1825 Rocket 4.5 12:02:08 10° NNW 12:05:48 27° W 12:08:19 16° SW
CZ-2C R/B 3.7 12:02:30 10° N 12:05:49 29° WNW 12:07:44 19° WSW
ARIANE 5 R/B 4.0 12:02:09 10° NNW 12:05:56 21° WNW 12:08:33 14° W
MSX 4.2 12:01:18 10° N 12:06:48 48° WNW 12:11:53 12° SW
USA 267 3.9 12:01:27 10° ESE 12:07:52 61° NE 12:14:17 10° NW
Cosmos 1745 Rocket 4.3 12:05:03 10° NNW 12:10:57 45° W 12:16:46 10° SSW
CZ-4B R/B 2.2 12:09:48 10° SSE 12:12:58 51° ENE 12:16:04 10° N
Cosmos 1455 3.6 12:11:11 10° SSE 12:14:48 40° E 12:18:26 10° NNE
Landsat 5 3.9 12:12:18 10° SSW 12:15:56 36° W 12:19:42 10° NNW
Cosmos 1953 Rocket 4.3 12:12:13 10° NNW 12:16:13 33° W 12:20:12 10° SSW
Cosmos 1300 3.7 12:15:09 15° SW 12:17:37 28° WNW 12:20:58 10° NNW
Lacrosse 5 rocket 3.0 12:13:45 10° S 12:17:48 34° SE 12:21:57 10° ENE
SeaSat 1 2.5 12:17:34 10° NNE 12:22:28 67° WNW 12:27:21 10° SW
ADEOS Rocket 4.0 12:18:27 10° SSE 12:26:02 71° ENE 12:33:47 10° N
Cosmos 2058 3.3 12:23:26 10° N 12:27:37 68° E 12:31:47 10° SSE
ERS-2 3.0 12:25:48 10° SSW 12:28:56 27° W 12:32:06 10° NW
TSX-5 3.2 12:40:01 10° SSW 12:43:11 85° ESE 12:46:23 10° NNE
SAR-Lupe-4 3.7 12:41:59 10° S 12:45:27 50° W 12:48:57 10° NNW
COSMO-SKYMED 1 4.4 12:41:49 10° SE 12:45:50 38° ENE 12:49:51 10° N
